Boynton Beach, FL (33437)

5:30 AM EST on December 05, 2016 (GMT -0500)
| | Change Station

Elev -9999 ft 0.00 °N, 0.00 °E | Updated

Partly Cloudy
Partly Cloudy
76 °F
Feels Like 76 °F
N
11
Wind Variable Wind from SSE
Gusts 17 mph

Today
High -- | Low -- °F
--% Chance of Precip.
Yesterday
High -- | Low -- °F
Precip. -- in
Pressure 30.01 in
Visibility 10.0 miles
Clouds Few 1700 ft
Few 3500 ft
Dew Point 70 °F
Humidity 83%
Rainfall --
Snow Depth Not available.
6:54 AM 5:27 PM
Waxing Crescent, 30% visible
METAR KPBI 050953Z 15008KT 10SM FEW017 FEW035 24/21 A3001 RMK AO2 SLP162 T02390211
Pressure 30.01 in
Visibility 10.0 miles
Clouds Few 1700 ft
Few 3500 ft
Dew Point 70 °F
Humidity 83%
Rainfall --
Snow Depth Not available.
6:54 AM 5:27 PM
Waxing Crescent, 30% visible
METAR KPBI 050953Z 15008KT 10SM FEW017 FEW035 24/21 A3001 RMK AO2 SLP162 T02390211

10-Day Weather Forecast

Almanac

Astronomy

Dec. 05, 2016 Rise Set
Actual Time
Civil Twilight
Nautical Twilight
Astronomical Twilight
Moon
Length of Visible Light
Length of Day
Tomorrow will be .
, % of the Moon is Illuminated

Today's Extremes

State Highs State Lows

Community

WunderPhotos

Upload Photos

1,955,775 photos uploaded!

WunderBlog® & News

Nearby

Air Quality

  Air Quality AQ Index Pollutant
Not available.

Snow Depth

Station Depth Elevation

Earthquake Activity

City Distance Mag. Time & Date
Minimum magnitude displayed is 2.5.

Coastal Water Temperatures

Place Temperature

Stations

Nearby Weather Stations

Station Location Temp. Windchill Dew Point Humidity Wind Precip. Elev Updated Type
                   

Watches & Warnings

There are currently no watches in effect.